This is the latest recevied weather packets stored in our database for station/object KB7K. If no packets are shown the sender has not sent any weather packets the latest 10 day(s).
| Time | Temp. | Humidity | Pressure | Rain* | Wind** | Luminosity | Snow |
|---|---|---|---|---|---|---|---|
| 1787852462 | 28.89° C | 27% | 985.2 hPa | 0 mm | - | - | - |
| 1787851459 | 27.78° C | 28% | 985.4 hPa | 0 mm | - | - | - |
| 1787850457 | 26.67° C | 29% | 985.5 hPa | 0 mm | - | - | - |
| 1787849453 | 25.56° C | 30% | 985.5 hPa | 0 mm | - | - | - |
| 1787848451 | 24.44° C | 31% | 985.6 hPa | 0 mm | - | - | - |
| 1787847447 | 23.33° C | 31% | 985.5 hPa | 0 mm | - | - | - |
| 1787846443 | 22.22° C | 32% | 985.6 hPa | 0 mm | - | - | - |
| 1787845440 | 21.67° C | 33% | 985.7 hPa | 0 mm | - | - | - |
| 1787844438 | 21.11° C | 33% | 985.8 hPa | 0 mm | - | - | - |
| 1787843434 | 20.56° C | 34% | 985.7 hPa | 0 mm | - | - | - |
| 1787842431 | 20.56° C | 34% | 985.7 hPa | 0 mm | - | - | - |
| 1787841428 | 20.56° C | 34% | 985.9 hPa | 0 mm | - | - | - |
| 1787840425 | 20° C | 34% | 985.8 hPa | 0 mm | - | - | - |
| 1787839422 | 20° C | 34% | 985.8 hPa | 0 mm | - | - | - |
| 1787838420 | 20° C | 33% | 985.8 hPa | 0 mm | - | - | - |
| 1787837416 | 20° C | 33% | 985.6 hPa | 0 mm | - | - | - |
| 1787836413 | 20° C | 33% | 985.4 hPa | 0 mm | - | - | - |
| 1787835410 | 20° C | 33% | 985.3 hPa | 0 mm | - | - | - |
| 1787834407 | 20.56° C | 32% | 985.1 hPa | 0 mm | - | - | - |
| 1787833404 | 20.56° C | 32% | 984.9 hPa | 0 mm | - | - | - |
| 1787832401 | 20.56° C | 32% | 984.9 hPa | 0 mm | - | - | - |
| 1787830395 | 21.11° C | 32% | 985.2 hPa | 0 mm | - | - | - |
| 1787829392 | 21.11° C | 32% | 985.2 hPa | 0 mm | - | - | - |
| 1787828388 | 21.11° C | 32% | 985.1 hPa | 0 mm | - | - | - |
| 1787827386 | 21.67° C | 31% | 985 hPa | 0 mm | - | - | - |
* Rain since midnight (hover to see other rain measurements)
** Current wind speed in m/s (hover to see current wind gust speed)